Wind_Speed
83 86 89 91 94 98 99 98 95 92 86 83 76 72 68 64 62 56 57 48 40 46 48 52 57 62 64 63 72 78 78 83 87 91 92 99 98 100 93 86 80 77 73 71 68
85 88 94 95 98 101 100 99 97 90 85 78 73 68 67 62 59 59 55 45 38 43 47 52 56 61 62 65 70 75 72 81 88 95 94 100 102 98 97 90 82 78 74 72 71
86 90 97 99 101 103 100 99 93 88 84 77 74 69 66 62 63 61 54 45 40 43 50 51 56 58 61 64 66 69 70 84 92 97 96 99 103 100 95 91 88 80 78 79 77
89 94 100 101 102 103 101 98 90 89 85 79 72 69 66 63 63 60 54 46 41 42 50 51 54 56 59 62 66 69 75 84 94 98 99 97 101 99 96 91 90 88 82 80 76
94 100 103 105 105 103 98 94 92 91 85 76 71 68 64 64 67 59 54 46 43 43 49 51 52 57 57 63 68 69 80 86 94 98 98 98 98 99 98 95 92 87 90 81 77
98 103 105 104 104 98 97 95 95 89 82 76 69 67 65 64 67 57 55 49 43 45 48 50 49 56 58 63 64 67 81 88 94 98 98 99 100 96 99 99 96 90 88 90 82
101 106 106 105 100 95 96 97 92 88 81 73 68 68 68 69 67 57 47 52 44 49 48 49 50 53 57 65 65 71 81 90 94 95 98 98 100 93 95 102 99 94 91 89 89
102 104 104 101 97 98 97 94 86 82 76 73 68 65 65 63 58 54 43 52 47 48 50 51 53 53 57 63 67 72 83 89 92 91 96 99 99 98 98 101 103 100 96 91 89
102 105 103 99 100 99 96 89 84 77 74 70 67 64 62 58 56 50 45 50 50 50 52 53 54 56 59 62 66 70 74 82 88 90 94 99 97 98 99 97 101 103 101 98 92
102 101 100 100 101 100 96 86 86 76 72 70 66 60 52 49 50 48 47 52 50 48 50 53 55 56 55 56 54 60 68 77 86 91 93 92 96 98 97 99 99 102 102 101 98
99 100 103 103 104 100 92 86 84 88 68 71 66 53 48 50 49 46 47 49 48 48 50 55 53 48 44 53 67 71 72 80 92 94 93 92 97 100 99 97 99 101 102 102 96
99 102 105 106 104 98 89 85 79 76 76 68 58 51 48 49 47 44 46 47 47 48 53 51 38 45 62 62 64 66 70 77 89 97 94 96 95 99 97 97 99 104 103 101 98
104 105 106 106 102 96 91 87 82 77 71 63 54 50 46 46 47 41 45 45 47 49 52 47 43 62 61 63 64 65 66 74 85 96 94 96 98 96 94 96 99 103 103 102 101
106 109 109 108 102 95 92 89 85 77 66 56 51 44 43 44 43 43 46 47 47 50 50 46 55 58 61 64 65 66 66 73 83 93 97 96 93 94 90 92 94 99 102 97 96
112 111 107 102 102 95 94 90 82 73 62 51 49 43 41 40 42 44 45 48 49 46 44 46 58 59 62 62 67 64 69 71 84 91 98 98 96 92 95 88 87 91 100 104 103
113 110 108 104 100 96 94 91 80 72 60 51 46 43 37 37 39 42 44 47 48 42 39 49 55 57 58 66 65 72 72 74 80 91 100 99 94 91 91 83 82 85 91 101 95
115 111 108 106 101 98 94 91 79 71 57 54 49 41 39 35 37 37 38 42 45 43 38 48 53 54 59 64 69 73 77 81 84 94 98 98 99 85 89 88 85 88 93 93 88
121 115 112 108 101 99 95 88 81 71 61 53 48 43 39 36 34 31 34 37 41 44 42 46 53 51 56 63 66 71 75 82 85 87 90 94 92 88 89 87 85 89 88 87 82
119 118 114 112 104 100 97 84 78 70 61 55 47 43 40 36 33 28 30 32 37 41 42 45 53 55 60 64 69 72 77 80 82 82 83 93 89 87 87 86 83 89 87 88 84
121 118 113 109 103 101 98 83 75 67 60 54 48 43 40 37 31 26 28 26 28 33 37 42 50 54 63 68 68 71 74 80 83 82 81 85 89 88 88 85 86 88 91 92 94
122 119 113 106 102 101 97 83 74 66 61 54 47 41 39 37 31 28 27 26 25 29 35 42 52 56 64 65 66 71 76 81 82 80 79 80 88 93 91 91 86 90 86 82 84
120 115 112 105 103 101 93 82 74 66 61 54 46 40 37 39 31 29 27 23 22 27 31 37 47 55 59 62 64 69 73 75 77 79 79 77 82 91 93 92 92 83 92 88 82
128 117 114 110 106 99 88 79 72 65 61 55 46 39 36 37 34 30 25 23 22 25 29 34 44 51 59 65 68 69 70 73 78 83 82 78 78 86 93 94 91 89 81 93 88
123 121 114 114 108 97 87 80 71 62 59 54 46 39 37 36 36 30 25 22 22 25 27 33 41 46 54 60 66 67 69 70 72 76 76 71 70 77 85 92 93 88 86 80 84
126 126 119 116 107 94 83 77 69 64 56 51 44 40 38 36 35 29 25 21 21 23 26 31 42 49 54 60 67 73 74 73 69 70 72 74 74 76 80 84 90 91 85 83 79
123 131 124 118 105 91 81 72 68 60 58 49 43 40 38 37 34 27 24 21 21 21 25 28 40 49 52 61 69 74 75 74 70 67 69 72 73 75 84 84 84 91 88 83 80
135 133 130 114 102 90 80 70 64 62 53 49 41 40 38 37 32 25 23 21 20 19 26 31 38 47 53 57 65 72 72 73 70 63 63 66 71 75 79 85 87 84 90 86 82
Wind_Direction
324 323 320 319 322 323 322 321 320 319 318 316 315 311 305 301 296 292 284 287 280 267 259 250 242 236 233 228 225 224 224 221 220 222 222 223 223 225 222 221 224 228 229 229 225
323 321 319 319 321 322 320 320 319 319 317 316 312 308 303 300 294 289 291 287 274 261 256 249 243 238 232 228 224 224 220 220 220 221 221 221 222 221 224 220 222 226 230 229 227
322 320 319 321 322 321 320 318 318 317 316 314 311 307 302 298 293 291 288 285 272 259 251 243 242 239 233 232 226 224 216 218 220 220 221 220 221 219 220 224 222 223 225 227 227
320 318 319 321 321 319 319 317 318 317 315 313 309 305 302 297 290 291 289 286 275 262 255 248 242 237 233 231 227 222 218 217 221 221 221 221 221 218 219 220 225 224 224 227 229
320 318 318 320 319 318 317 318 319 317 315 311 308 306 302 295 290 291 290 285 274 261 254 251 244 238 232 227 224 219 217 217 218 222 221 221 222 219 219 221 222 227 226 226 230
319 319 318 318 318 319 319 320 320 317 315 312 308 305 300 291 291 293 291 284 269 260 255 251 242 238 233 229 224 220 219 219 218 219 220 220 222 220 218 220 223 222 227 228 226
316 316 317 318 319 320 321 321 319 317 314 312 308 305 299 293 293 291 284 277 267 256 249 246 243 236 230 231 224 219 220 218 220 218 221 220 222 219 219 220 223 223 225 228 229
316 317 320 321 322 323 323 322 320 317 314 310 308 303 301 299 292 286 279 267 262 252 248 243 238 233 229 228 226 220 219 219 219 219 219 222 220 219 218 219 222 225 225 227 230
318 320 321 324 324 325 326 324 320 318 315 312 307 304 304 297 289 282 273 263 258 251 246 240 238 233 227 228 226 222 220 220 220 220 220 223 222 222 219 219 220 224 226 226 226
319 322 323 324 326 328 328 325 320 320 315 314 310 308 303 294 282 274 268 262 258 252 246 243 240 236 229 228 230 229 223 221 221 220 222 223 224 223 221 219 218 221 225 227 227
323 325 326 328 328 329 328 325 323 318 319 316 312 307 298 286 279 275 266 263 259 254 246 242 239 236 233 225 226 224 220 217 217 220 220 222 224 223 222 220 221 220 224 227 228
327 329 330 329 329 329 329 326 322 317 318 317 314 304 295 285 280 277 266 260 257 251 244 245 238 230 226 222 223 222 219 216 217 219 218 220 225 225 221 222 220 222 223 226 229
331 329 330 329 330 330 329 326 324 323 319 317 312 302 296 285 281 275 268 260 255 252 247 244 224 228 225 222 220 220 217 217 216 218 219 218 222 225 223 220 221 222 223 224 227
333 332 332 330 331 332 330 328 327 326 321 318 310 302 293 286 281 275 271 266 260 251 248 239 229 227 225 222 218 220 218 217 217 217 218 219 221 227 227 220 221 223 223 224 228
335 334 334 332 333 334 332 332 331 329 324 319 311 305 295 285 280 277 272 268 264 254 249 234 232 224 221 220 217 216 220 216 216 218 217 219 218 223 228 228 221 223 223 224 226
338 335 334 334 334 334 334 333 333 330 327 323 314 308 297 286 278 275 272 269 267 257 242 236 232 227 217 218 214 215 216 219 216 218 219 216 217 221 227 230 225 222 222 224 227
338 338 335 335 336 336 335 335 333 332 330 324 320 311 300 290 283 277 270 265 262 257 238 234 231 223 219 215 215 213 213 215 218 215 217 216 216 216 223 225 227 218 216 219 221
341 338 335 336 338 336 337 336 333 333 329 328 323 315 304 298 290 280 269 260 254 251 242 233 231 222 221 216 214 213 215 218 217 214 216 217 214 213 220 224 226 223 219 221 227
341 338 337 338 338 337 337 336 333 333 330 327 324 319 310 303 297 288 275 262 254 247 240 228 224 219 214 215 214 211 213 218 219 220 214 216 213 214 218 222 226 224 220 217 218
339 338 336 337 338 337 337 336 335 333 330 328 324 321 314 307 305 296 281 264 254 247 237 224 220 218 213 215 211 213 211 216 219 218 215 214 213 210 216 219 220 223 223 220 221
338 337 333 337 338 338 338 337 335 334 330 328 324 322 317 310 309 302 288 268 250 236 232 225 217 213 216 216 213 211 212 213 218 219 218 212 211 210 214 217 218 217 221 225 225
336 334 333 338 338 337 338 337 335 334 331 327 325 324 320 312 313 305 290 277 257 239 227 224 218 213 214 213 216 215 213 213 218 223 220 215 210 211 211 215 219 219 219 218 221
337 334 335 338 337 337 337 336 335 333 331 327 325 324 322 315 314 306 290 276 254 238 224 220 217 213 211 210 212 216 216 215 214 219 220 217 211 210 211 215 217 219 221 221 221
336 335 337 337 336 337 337 336 334 332 330 326 324 325 322 316 312 306 289 272 255 241 227 216 217 212 210 211 214 217 219 219 217 218 222 222 218 211 211 214 217 218 221 222 222
337 340 336 337 334 336 336 335 334 331 330 325 324 323 321 317 311 303 287 273 259 243 228 214 212 212 207 207 210 214 216 221 218 217 218 220 222 218 215 214 216 218 219 220 221
337 339 336 337 335 335 336 335 332 330 327 326 324 323 321 317 311 300 286 275 258 242 231 211 211 211 210 207 207 213 216 220 218 213 215 216 218 218 217 216 216 215 219 220 220
334 336 337 335 334 333 334 333 331 329 327 323 324 323 321 318 311 298 287 274 259 241 231 213 207 211 209 208 211 213 215 216 220 216 215 216 219 218 218 216 217 217 217 218 221
Height
10712 10701 10686 10673 10663 10651 10636 10624 10614 10605 10596 10586 10578 10569 10560 10554 10547 10546 10539 10547 10550 10547 10548 10550 10553 10556 10563 10575 10583 10594 10608 10632 10648 10654 10663 10666 10677 10691 10703 10723 10736 10743 10751 10759 10769
10703 10689 10674 10663 10651 10636 10622 10609 10597 10587 10577 10570 10562 10551 10541 10536 10530 10524 10526 10529 10532 10531 10532 10534 10536 10540 10549 10559 10567 10577 10604 10621 10625 10631 10638 10647 10658 10677 10695 10711 10726 10735 10741 10749 10755
10689 10675 10659 10648 10635 10619 10606 10593 10581 10570 10560 10552 10542 10531 10522 10517 10510 10505 10510 10512 10514 10514 10512 10517 10520 10528 10537 10546 10558 10570 10596 10599 10604 10611 10621 10629 10640 10663 10682 10700 10714 10720 10725 10730 10738
10675 10658 10643 10632 10619 10603 10589 10574 10564 10550 10540 10531 10522 10511 10503 10497 10490 10488 10492 10495 10496 10499 10495 10501 10505 10513 10523 10533 10543 10557 10572 10580 10584 10592 10604 10618 10631 10652 10670 10684 10695 10704 10713 10720 10732
10660 10643 10630 10620 10606 10590 10573 10558 10545 10530 10519 10511 10503 10491 10484 10478 10467 10474 10474 10477 10478 10482 10480 10484 10493 10496 10506 10515 10522 10539 10549 10559 10566 10575 10591 10606 10617 10636 10656 10671 10681 10692 10703 10711 10723
10645 10631 10617 10606 10591 10572 10555 10537 10524 10510 10498 10489 10482 10471 10465 10456 10450 10459 10456 10457 10462 10463 10466 10470 10479 10482 10490 10498 10510 10528 10532 10541 10548 10561 10576 10590 10600 10623 10641 10653 10665 10679 10690 10699 10709
10632 10616 10603 10590 10573 10555 10536 10519 10505 10491 10477 10468 10463 10452 10443 10434 10430 10438 10443 10434 10445 10446 10450 10453 10459 10465 10476 10481 10494 10507 10513 10520 10533 10549 10563 10577 10587 10616 10625 10639 10651 10664 10673 10685 10696
10616 10601 10586 10571 10554 10536 10519 10500 10485 10473 10458 10447 10443 10434 10424 10418 10415 10415 10425 10415 10424 10428 10431 10434 10438 10449 10459 10467 10474 10486 10491 10502 10520 10537 10551 10560 10577 10592 10607 10623 10636 10649 10660 10671 10682
10603 10585 10567 10551 10532 10516 10498 10479 10464 10456 10439 10427 10420 10416 10408 10401 10396 10398 10402 10398 10402 10408 10412 10416 10421 10429 10439 10450 10458 10469 10485 10498 10507 10524 10535 10545 10568 10578 10592 10607 10621 10633 10644 10656 10669
10586 10567 10548 10531 10514 10496 10479 10462 10437 10438 10425 10409 10399 10397 10390 10383 10378 10380 10382 10379 10387 10392 10395 10399 10405 10414 10428 10440 10456 10469 10480 10489 10497 10510 10523 10542 10554 10563 10579 10593 10605 10616 10626 10642 10656
10569 10551 10530 10512 10494 10478 10463 10445 10427 10390 10410 10389 10380 10376 10372 10363 10360 10364 10366 10366 10371 10374 10379 10380 10389 10408 10426 10427 10423 10433 10452 10465 10478 10491 10509 10527 10528 10541 10561 10576 10591 10603 10614 10628 10640
10552 10533 10510 10491 10476 10459 10444 10428 10416 10398 10380 10374 10364 10358 10352 10345 10343 10347 10347 10348 10352 10356 10356 10364 10392 10399 10385 10399 10410 10422 10437 10451 10462 10471 10490 10503 10515 10524 10544 10564 10578 10589 10601 10616 10625
10535 10511 10493 10473 10458 10442 10426 10408 10394 10380 10368 10359 10349 10342 10336 10329 10326 10331 10329 10331 10335 10339 10343 10356 10375 10359 10372 10381 10394 10408 10425 10437 10450 10459 10472 10486 10495 10507 10530 10549 10561 10573 10587 10600 10613
10517 10498 10481 10457 10440 10422 10407 10391 10375 10361 10349 10341 10333 10328 10320 10313 10311 10311 10310 10312 10318 10322 10328 10343 10342 10349 10358 10367 10379 10394 10409 10422 10433 10442 10456 10471 10493 10503 10518 10535 10548 10562 10580 10593 10605
10501 10482 10463 10443 10423 10407 10389 10373 10359 10345 10333 10326 10316 10312 10306 10301 10296 10295 10295 10293 10297 10307 10319 10326 10320 10329 10340 10358 10363 10383 10389 10405 10416 10428 10440 10455 10472 10494 10500 10519 10544 10556 10567 10579 10592
10486 10466 10444 10425 10411 10394 10374 10356 10343 10329 10316 10309 10303 10296 10293 10287 10283 10281 10280 10279 10281 10292 10302 10301 10304 10316 10331 10335 10352 10355 10371 10384 10398 10409 10415 10443 10464 10478 10496 10520 10525 10536 10550 10562 10575
10470 10450 10430 10413 10395 10378 10360 10343 10329 10315 10306 10294 10289 10284 10278 10272 10270 10269 10268 10266 10266 10272 10284 10284 10291 10303 10312 10322 10333 10342 10351 10360 10370 10381 10399 10423 10439 10478 10483 10495 10508 10519 10532 10545 10559
10458 10438 10418 10400 10381 10363 10347 10330 10313 10302 10292 10284 10275 10269 10262 10258 10257 10255 10253 10253 10254 10257 10264 10271 10277 10292 10304 10310 10324 10333 10341 10348 10354 10369 10394 10411 10433 10464 10468 10479 10492 10506 10521 10534 10548
10443 10424 10403 10385 10367 10348 10334 10319 10301 10289 10280 10270 10263 10257 10250 10244 10242 10241 10239 10240 10241 10243 10249 10256 10263 10275 10283 10292 10305 10317 10325 10337 10349 10362 10384 10395 10428 10447 10459 10469 10482 10496 10510 10524 10538
10430 10409 10386 10370 10352 10333 10320 10306 10291 10277 10267 10259 10251 10244 10238 10231 10231 10228 10226 10228 10229 10233 10237 10243 10248 10261 10267 10275 10290 10304 10317 10323 10333 10348 10367 10389 10413 10432 10443 10456 10468 10481 10497 10510 10523
10417 10393 10370 10353 10339 10321 10306 10292 10278 10268 10257 10248 10240 10233 10227 10221 10220 10217 10214 10215 10217 10220 10224 10230 10235 10246 10253 10267 10280 10289 10300 10310 10323 10339 10355 10375 10393 10413 10427 10443 10455 10472 10486 10498 10512
10401 10378 10358 10341 10324 10311 10296 10280 10267 10256 10248 10239 10231 10224 10218 10209 10211 10207 10204 10205 10206 10209 10212 10219 10225 10233 10245 10261 10272 10280 10290 10304 10318 10328 10343 10360 10381 10398 10415 10428 10443 10459 10474 10489 10501
10389 10369 10349 10331 10312 10296 10285 10273 10259 10245 10238 10230 10221 10215 10209 10202 10200 10197 10197 10194 10196 10198 10203 10209 10214 10224 10233 10244 10255 10267 10280 10293 10304 10313 10327 10345 10365 10384 10403 10414 10431 10446 10459 10476 10491
10376 10357 10340 10322 10304 10284 10270 10258 10248 10239 10228 10220 10212 10206 10200 10195 10190 10189 10186 10186 10186 10187 10194 10201 10206 10216 10226 10242 10253 10263 10272 10283 10296 10309 10324 10341 10357 10377 10391 10403 10418 10433 10447 10462 10477
10367 10345 10327 10312 10295 10277 10262 10247 10238 10224 10220 10212 10205 10197 10191 10187 10183 10180 10176 10177 10177 10180 10184 10192 10198 10206 10215 10225 10237 10246 10255 10266 10284 10300 10313 10328 10341 10361 10377 10389 10403 10418 10433 10448 10463
10347 10330 10312 10298 10282 10265 10251 10239 10226 10222 10207 10204 10196 10190 10183 10177 10174 10171 10168 10168 10168 10172 10176 10183 10189 10196 10205 10214 10224 10233 10245 10256 10269 10287 10300 10315 10330 10345 10359 10373 10387 10403 10419 10436 10451
10331 10313 10295 10283 10267 10253 10240 10229 10218 10207 10204 10193 10188 10181 10174 10168 10164 10163 10160 10159 10160 10164 10167 10174 10180 10187 10195 10205 10215 10225 10237 10250 10262 10281 10296 10308 10317 10328 10341 10359 10373 10389 10405 10422 10438